Dewpoint
48 49 49 50 50 50 50 51 52 52 52 52 53 54 55 56 56 54 52 53 48 44 42 43 41 41 40 38 38 41 31 28 28 32 29 28 28 31 32 37 39 39 35 28 31 32 29 38 34 32 43 38 39 40
47 48 49 50 50 50 50 51 52 53 52 52 52 53 55 56 56 55 52 52 50 48 43 43 41 41 39 39 37 37 38 36 30 28 32 30 29 31 43 34 43 38 36 35 34 37 49 44 41 43 42 39 38 41
48 48 48 49 49 49 50 50 50 51 51 52 52 52 53 55 55 54 52 52 52 47 43 38 32 34 34 35 35 36 38 40 40 38 38 33 41 36 35 35 46 44 40 35 37 36 35 37 37 39 40 38 39 42
46 47 48 48 48 48 49 49 49 50 51 51 51 51 52 54 54 53 51 51 51 49 43 31 32 33 38 37 36 35 35 36 37 38 38 36 34 41 33 37 40 39 43 39 38 38 39 37 41 42 41 41 43 44
46 47 47 48 48 48 49 49 50 50 50 51 50 50 51 52 53 51 51 51 52 49 45 44 41 35 35 36 35 37 36 35 37 36 36 35 35 37 36 34 32 36 39 36 36 41 46 46 43 42 43 43 45 46
48 47 48 48 48 49 49 49 50 50 51 51 51 51 51 52 52 50 49 52 51 50 47 39 38 35 36 37 36 38 37 36 36 35 36 35 34 38 36 36 38 35 37 36 42 40 39 41 42 43 43 44 46 46
47 47 47 47 48 49 50 51 52 52 52 52 52 52 52 53 49 48 50 54 52 53 48 41 34 35 36 37 35 35 33 35 35 36 36 36 41 40 38 37 44 42 40 40 40 43 43 41 42 41 42 43 45 45
47 47 47 47 47 49 50 51 51 52 53 53 53 53 53 53 52 49 48 51 52 52 49 42 37 35 37 33 31 33 32 34 37 36 36 35 35 37 37 44 42 42 41 38 41 41 40 43 44 46 45 44 46 44
47 47 47 47 48 50 51 52 51 52 53 54 53 53 52 51 49 51 54 55 53 51 49 41 35 42 38 34 33 35 35 32 33 33 34 35 36 37 43 49 46 44 43 40 40 41 41 41 43 44 45 44 45 46
48 47 47 48 48 50 51 50 51 52 53 53 51 50 49 54 56 55 51 49 48 47 46 42 41 38 44 36 35 37 37 35 33 33 35 34 33 48 53 52 49 45 44 41 40 42 40 42 45 46 48 48 50 49
47 47 47 48 48 49 50 50 50 52 52 51 51 53 57 55 51 48 48 44 44 41 42 41 39 38 39 37 36 39 39 39 35 35 37 34 33 45 48 52 56 50 48 46 46 48 51 52 53 51 50 49 49 48
48 47 48 48 49 49 50 50 50 50 50 49 49 52 53 53 50 47 42 42 39 39 39 40 39 39 41 43 41 42 42 45 41 48 39 38 49 55 54 48 53 54 50 48 48 51 51 48 47 47 47 46 47 49
49 48 48 48 49 48 49 49 50 51 52 51 52 50 47 50 44 40 37 37 38 39 41 41 40 40 42 43 41 44 45 43 50 47 46 45 59 58 60 55 53 54 53 50 50 50 48 47 46 46 47 48 49 51
49 49 49 49 48 49 49 50 50 51 51 50 48 42 44 42 40 39 42 41 43 41 40 42 41 40 39 40 39 39 44 47 46 43 39 54 56 57 57 54 52 50 50 50 49 49 48 47 45 46 47 48 48 50
50 49 49 48 48 48 48 49 50 50 50 48 47 41 40 40 41 48 47 45 44 45 45 46 46 47 39 39 40 47 43 43 44 42 52 56 55 57 59 56 55 52 53 54 53 49 47 46 47 49 49 49 52 55
50 49 47 46 48 48 48 48 49 51 44 45 46 43 43 44 43 47 47 47 47 46 51 51 49 47 41 39 40 39 37 35 41 50 57 61 61 60 60 56 57 56 55 53 51 49 48 49 50 50 50 52 53 55
49 43 46 48 48 47 48 47 50 47 41 39 37 37 37 44 49 52 51 53 52 49 52 54 47 45 43 41 40 43 39 42 52 53 56 55 60 62 63 61 60 58 55 51 52 55 55 53 50 50 53 56 55 56
43 43 48 48 48 46 48 47 46 42 38 37 34 34 35 38 48 51 49 54 51 54 54 50 54 47 46 44 45 48 50 52 54 55 55 61 63 62 59 58 57 55 53 53 53 53 52 52 53 48 57 57 56 55
44 45 47 49 48 46 44 45 43 39 36 34 36 36 37 37 38 38 41 50 49 47 50 46 48 49 50 51 52 52 53 55 58 57 58 59 58 57 55 54 54 55 55 55 53 45 45 52 49 50 51 53 55 56
49 50 50 50 47 47 43 41 45 40 36 39 36 36 36 37 38 37 36 37 42 44 52 47 43 50 52 54 52 51 52 53 54 53 50 51 53 57 56 54 51 54 48 48 44 43 46 47 48 50 53 56 55 57
46 45 47 46 47 44 42 40 40 40 38 37 38 39 37 38 37 36 37 39 37 38 39 44 45 47 55 58 55 54 51 50 49 50 51 53 53 49 53 59 58 45 41 42 43 44 46 50 53 57 57 57 55 54
45 47 43 49 45 44 39 38 36 39 37 37 36 36 35 35 35 35 37 36 37 38 39 40 48 50 57 56 54 58 58 55 54 51 49 49 49 50 54 49 44 43 43 43 46 53 53 54 55 55 57 53 52 52
48 45 41 41 41 42 38 38 37 37 35 36 36 35 36 37 41 44 40 40 40 41 42 43 52 59 57 58 58 57 56 55 49 48 54 52 53 50 45 43 43 44 43 45 50 55 56 51 54 56 55 53 52 52
46 40 38 37 39 36 37 37 38 36 37 36 35 36 41 50 47 47 43 51 48 48 48 57 46 43 44 55 53 56 54 52 48 46 47 52 49 52 47 44 43 42 44 48 52 54 58 60 53 55 54 53 51 50
41 37 38 36 39 39 36 36 37 36 36 39 40 40 46 52 48 46 47 54 57 57 53 54 58 54 46 40 41 41 47 42 42 44 44 50 49 44 45 43 44 42 43 47 50 54 57 54 54 54 52 51 50 49
37 36 37 35 33 34 36 37 37 38 40 39 39 40 42 48 44 42 52 55 54 51 51 52 52 54 61 54 53 49 43 41 45 43 54 48 45 40 40 42 41 40 48 51 53 55 54 53 52 51 50 49 45 48
37 35 36 37 38 41 37 40 42 40 39 38 38 43 44 41 43 51 55 51 50 50 51 52 52 52 61 55 56 53 46 44 48 49 51 46 41 42 44 44 43 44 50 52 54 54 53 52 51 50 49 49 50 49
36 37 36 38 36 37 39 39 40 40 40 43 41 42 41 44 48 51 48 49 51 50 52 51 52 55 59 56 54 48 46 46 49 48 43 40 43 44 46 47 50 48 53 53 53 53 52 52 51 50 49 48 48 49
35 36 37 37 38 40 39 37 37 37 42 48 47 46 48 54 48 47 48 48 50 50 50 56 59 56 57 58 58 48 50 45 40 41 41 40 40 41 43 48 52 52 52 51 45 49 52 52 52 51 52 51 51 52
34 35 34 35 35 36 37 37 39 38 40 40 44 46 45 53 48 51 51 49 49 53 52 53 52 52 57 54 48 48 41 37 39 43 43 44 44 43 43 41 43 50 51 50 49 51 48 50 50 52 53 54 54 52
40 40 38 38 36 36 37 37 37 37 38 38 43 44 42 48 49 50 51 52 54 54 54 54 52 50 46 44 44 38 36 40 47 48 45 45 42 42 41 40 45 51 51 50 50 48 49 49 50 51 50 50 48 47
42 40 39 39 40 41 43 41 41 42 42 43 43 46 46 48 48 48 53 56 57 56 58 56 53 46 50 51 45 46 44 46 43 41 41 43 43 43 41 38 39 48 48 50 51 50 52 52 52 51 50 49 47 46
44 43 41 41 41 42 42 41 43 46 49 48 48 50 49 50 48 53 62 61 61 61 61 60 56 56 54 55 57 53 52 51 44 42 43 43 40 41 40 38 39 43 45 46 45 44 44 46 48 48 48 48 48 48
Lifted_Index
13 13 12 11 10 10 9 9 8 8 9 9 8 7 6 5 4 3 1 1 1 2 2 1 1 1 1 1 0 0 1 2 2 2 1 0 -0 -0 -0 -1 -1 -1 0 0 0 -1 -1 -0 1 2 2 3 3 3
13 13 12 11 11 10 10 9 9 9 9 9 9 8 6 5 4 3 2 1 1 1 2 2 1 1 1 1 1 0 0 1 1 1 0 0 -0 -0 -0 -1 -1 -0 -0 -0 -0 -0 -0 1 1 2 3 3 3 3
13 13 13 12 11 11 10 10 10 10 10 10 9 8 6 5 4 4 3 2 1 1 1 2 2 2 1 1 1 1 0 0 0 -0 0 0 -0 -1 -1 -0 -0 -0 -0 -0 0 0 1 2 2 3 3 3 3 3
14 13 13 12 12 11 10 10 10 10 10 10 10 8 6 4 4 4 3 2 1 0 0 1 1 2 2 1 1 1 1 1 0 0 0 -0 -1 -1 -0 -0 -0 -0 -1 -0 0 1 2 2 2 3 3 3 3 3
14 13 13 12 12 11 11 10 10 10 11 10 10 8 6 5 4 4 3 2 1 0 -0 0 1 1 1 1 1 1 1 1 0 0 -0 -1 -1 -1 -0 -0 0 -0 -1 -0 0 1 2 2 2 3 3 3 3 3
14 13 13 12 11 11 10 10 10 10 10 10 9 8 7 5 4 3 1 1 1 0 -0 -0 0 1 1 1 2 1 1 1 0 -0 -1 -1 -1 -1 -1 -0 -0 -0 -0 0 1 1 2 2 2 2 3 3 3 3
14 13 13 12 11 11 10 9 9 9 9 9 9 7 6 5 5 3 1 1 1 1 -0 -1 -0 0 1 1 1 1 1 1 0 -0 -1 -1 -1 -1 -1 -1 -1 -0 -0 0 1 1 2 2 2 3 3 3 3 3
13 13 13 12 11 10 10 9 9 8 8 8 7 6 5 4 4 3 2 2 2 1 -0 -1 -1 -0 0 1 1 1 1 1 0 0 -0 -1 -1 -1 -1 -1 -1 -1 -0 -0 0 1 1 2 2 2 3 3 3 3
13 13 13 12 11 10 9 9 8 8 8 7 6 4 3 3 3 2 2 2 2 1 -0 -1 -1 -1 -0 0 1 1 1 1 1 0 0 -0 -1 -1 -1 -1 -1 -1 -0 -0 0 1 1 2 2 2 2 2 2 2
13 13 12 12 11 10 9 9 8 8 7 5 4 2 1 1 1 1 1 1 1 1 0 -0 -1 -1 -1 -0 -0 -0 -0 -0 0 0 0 0 -0 -1 -1 -2 -1 -1 -0 -0 0 0 1 1 1 1 1 1 2 2
12 12 12 11 10 9 9 8 7 6 5 3 2 1 1 0 1 1 1 1 0 0 0 -0 -0 -1 -1 -1 -1 -1 -1 -1 -1 -1 -1 -0 -1 -1 -2 -2 -2 -1 -1 -1 -1 -1 -1 -0 -0 0 1 2 2 3
11 11 11 11 10 9 8 7 6 5 4 3 2 1 1 0 0 0 0 0 0 0 0 -0 -0 -0 -1 -1 -1 -1 -2 -2 -1 -1 -1 -2 -2 -3 -3 -3 -3 -3 -2 -2 -1 -1 -1 -0 1 1 2 3 3 3
10 10 10 10 10 9 8 7 6 5 4 3 2 1 1 0 0 0 -0 -0 -0 -0 -0 -0 -0 -0 -1 -1 -1 -2 -2 -2 -1 -1 -2 -3 -3 -4 -4 -4 -3 -3 -3 -2 -2 -1 -0 1 2 3 3 3 3 3
10 9 9 9 9 9 8 7 6 5 4 2 1 1 1 0 0 -0 -1 -1 -1 -1 -1 -1 -1 -1 -1 -1 -1 -1 -2 -1 -1 -1 -1 -2 -2 -3 -4 -4 -3 -3 -2 -2 -1 -1 0 2 2 3 3 3 3 3
9 8 8 9 9 9 8 7 6 4 3 2 1 1 1 1 0 -0 -1 -1 -1 -1 -1 -1 -1 -1 -0 -0 -1 -1 -1 -1 -1 -1 -1 -1 -1 -2 -3 -4 -3 -2 -2 -2 -1 -0 1 2 2 2 2 2 2 2
8 7 7 8 9 9 8 6 5 4 3 2 1 1 1 1 1 0 -0 -1 -1 -1 -2 -2 -2 -1 -1 -0 -0 -0 -1 -1 -1 -1 -1 -1 -1 -2 -3 -3 -3 -2 -2 -1 -1 0 1 1 2 2 2 2 2 2
7 7 7 8 8 7 6 5 4 3 3 3 2 2 2 2 1 1 0 -0 -0 -1 -2 -2 -2 -1 -1 -0 -0 -1 -1 -1 -1 -1 -0 -1 -2 -2 -3 -2 -2 -2 -1 -1 -0 0 1 1 2 2 2 1 1 1
7 7 7 8 7 6 4 4 3 3 3 3 3 3 3 2 2 1 1 1 0 -0 -1 -1 -1 -1 -1 -1 -1 -1 -2 -1 -1 0 0 -1 -2 -2 -2 -2 -1 -1 -1 -0 0 1 1 2 2 2 1 1 1 1
7 7 8 8 7 5 4 3 3 3 3 3 3 3 3 3 3 2 2 1 1 0 -0 -0 -0 -1 -1 -1 -1 -1 -1 -1 -1 -0 -1 -2 -2 -2 -1 -1 -0 -0 0 0 1 2 2 2 2 2 1 1 0 0
7 7 7 7 6 5 4 3 3 3 3 3 3 3 3 3 3 3 3 2 2 1 1 0 -0 -0 -0 -1 -1 -1 -1 -1 -1 -1 -1 -1 -1 -1 -1 -1 -0 1 1 2 2 3 3 2 2 1 1 0 0 0
7 7 6 6 5 4 4 3 3 3 3 3 3 2 2 2 3 3 3 3 3 2 2 1 0 0 -0 -0 -0 -0 -1 -0 -0 -0 -0 -0 0 0 0 0 1 2 3 3 3 2 2 1 1 0 0 0 1 1
6 6 6 5 4 4 4 4 3 3 3 3 2 2 2 2 2 2 2 3 2 2 2 2 1 0 -0 -0 -0 -1 -1 -0 0 1 1 1 1 1 1 1 2 3 3 3 2 1 0 0 0 0 0 1 2 3
7 6 6 5 5 4 4 4 3 3 3 2 2 2 2 1 1 1 1 1 1 1 2 2 1 1 0 -0 -1 -1 -1 -0 0 1 1 1 1 1 2 2 3 3 3 2 1 0 -0 0 0 1 2 3 4 4
6 6 6 5 5 5 4 4 3 3 2 2 2 1 1 0 0 0 0 0 -0 0 0 0 1 1 1 1 0 0 0 0 1 1 1 0 1 1 2 2 2 3 3 2 1 0 -0 0 1 2 3 4 4 4
6 6 6 5 5 4 4 3 3 2 2 1 1 1 0 -0 -0 -0 -1 -1 -1 -1 -1 -0 -0 0 1 1 1 1 1 2 2 1 1 0 1 1 2 2 2 3 2 1 1 0 1 1 2 2 3 4 4 4
6 5 5 5 4 4 3 3 2 2 1 1 1 1 0 -0 -0 -1 -1 -1 -1 -1 -0 -0 -1 -1 -1 -0 0 1 2 2 2 2 1 1 1 2 2 2 2 3 2 1 1 1 1 2 2 3 3 3 4 4
6 5 4 4 4 4 3 2 2 1 1 1 1 1 0 -0 -0 -1 -1 -1 -0 -0 -0 -0 -1 -1 -1 -1 -1 -0 1 2 2 1 1 1 2 2 1 1 2 2 2 1 1 1 2 2 3 3 3 3 4 4
5 5 4 4 4 4 3 3 2 2 1 1 1 0 -0 -0 -0 -0 -0 0 1 1 0 -0 -0 -1 -1 -1 -1 -0 0 1 1 1 1 2 2 1 1 1 2 2 2 2 2 2 2 2 3 3 3 4 4 4
5 5 4 4 4 4 3 3 2 2 2 1 1 0 0 -0 -0 0 1 1 1 0 -0 -1 -1 -1 -0 -0 -1 -0 0 1 1 2 2 1 1 1 2 2 1 1 2 2 2 2 2 2 3 3 3 3 4 4
5 5 5 4 4 4 3 3 3 2 2 2 1 1 1 0 0 0 1 1 1 -0 -1 -1 -1 -1 -1 -0 -0 0 1 2 2 2 1 1 1 1 2 2 2 1 1 2 3 3 2 2 2 2 2 3 3 3
5 5 4 4 4 4 3 3 3 2 2 2 2 2 1 1 1 1 1 0 -0 -1 -1 -2 -2 -1 -1 -1 0 1 2 2 1 1 1 1 1 2 2 3 2 1 1 1 2 2 2 2 2 2 2 3 3 4
4 4 4 4 4 3 3 3 2 2 2 2 2 2 2 1 1 1 1 -0 -1 -1 -1 -2 -2 -1 -1 -0 0 1 1 1 1 1 1 1 1 2 2 3 2 1 1 1 1 1 2 2 2 2 2 3 4 4
4 4 3 3 3 3 3 2 2 1 1 1 2 2 2 2 2 1 0 -1 -1 -1 -1 -2 -2 -1 -1 -0 0 1 1 1 1 1 1 1 2 2 2 3 3 2 1 1 1 1 2 2 2 2 3 3 3 4